DW0937 Weather Reports


time (UTC)temp
F
wind
direction
speed
knots
gust
knots
rain 1hr
in
rain 24hr
in
rain mn
in
humidity
%
barometer
mb
20260503005410 63 205 2.6 7.0 0.00 0.00 0.00 39 1009.4
20260503004910 63 189 1.7 6.1 0.00 0.00 0.00 39 1009.4
20260503004411 63 215 1.7 6.1 0.00 0.00 0.00 39 1009.4
20260503003911 63 225 0.9 3.5 0.00 0.00 0.00 39 1009.5
20260503003408 63 216 1.7 4.3 0.00 0.00 0.00 39 1009.5
20260503002908 63 200 1.7 5.2 0.00 0.00 0.00 40 1009.5
20260503002407 63 251 2.6 7.0 0.00 0.00 0.00 38 1009.6
20260503001908 64 277 2.6 7.0 0.00 0.00 0.00 37 1009.7
20260503001409 64 234 1.7 6.1 0.00 0.00 0.00 38 1009.7
20260503000909 64 216 1.7 6.1 0.00 0.00 0.00 38 1009.8
20260503000407 64 285 3.5 9.6 0.00 0.00 0.00 36 1009.8
20260502235907 65 248 2.6 9.6 0.00 0.00 0.00 35 1009.8
20260502235407 65 309 2.6 7.8 0.00 0.00 0.00 34 1009.8
20260502234905 65 288 2.6 7.8 0.00 0.00 0.00 34 1009.8
20260502234404 65 271 3.5 9.6 0.00 0.00 0.00 33 1009.7
20260502234133 65 255 3.5 9.6 0.00 0.00 0.00 33 1009.7
20260502233404 65 241 3.5 8.7 0.00 0.00 0.00 34 1009.7
20260502233350 65 260 3.5 8.7 0.00 0.00 0.00 34 1009.7
20260502232627 66 242 3.5 8.7 0.00 0.00 0.00 33 1009.7
20260502231902 66 205 3.5 9.6 0.00 0.00 0.00 33 1009.7
20260502231402 66 194 1.7 9.6 0.00 0.00 0.00 33 1009.7
20260502231122 65 210 1.7 6.1 0.00 0.00 0.00 34 1009.8
20260502230401 65 227 2.6 7.0 0.00 0.00 0.00 33 1009.9
20260502225900 65 211 2.6 7.0 0.00 0.00 0.00 33 1009.9
20260502225359 65 217 2.6 7.8 0.00 0.00 0.00 34 1009.9
20260502224851 65 219 2.6 7.8 0.00 0.00 0.00 33 1010.0
20260502224351 65 223 3.5 7.8 0.00 0.00 0.00 33 1010.0
20260502223851 65 201 3.5 6.1 0.00 0.00 0.00 33 1010.2
20260502223351 65 248 3.5 9.6 0.00 0.00 0.00 33 1010.3
20260502222850 66 267 3.5 9.6 0.00 0.00 0.00 32 1010.4
20260502222351 66 273 2.6 7.8 0.00 0.00 0.00 32 1010.4
20260502221850 66 242 2.6 7.8 0.00 0.00 0.00 31 1010.5
20260502221348 66 205 2.6 8.7 0.00 0.00 0.00 32 1010.5
20260502220849 66 276 3.5 8.7 0.00 0.00 0.00 30 1010.5
20260502220348 67 261 4.3 15.6 0.00 0.00 0.00 30 1010.6
20260502215848 67 250 6.1 15.6 0.00 0.00 0.00 30 1010.6
20260502215607 67 281 5.2 15.6 0.00 0.00 0.00 30 1010.8
20260502214848 67 198 4.3 11.3 0.00 0.00 0.00 31 1010.6
20260502214348 67 227 4.3 9.6 0.00 0.00 0.00 31 1010.8
20260502213848 68 238 4.3 12.2 0.00 0.00 0.00 30 1010.9
20260502213345 68 263 4.3 12.2 0.00 0.00 0.00 31 1010.9
20260502212840 67 220 4.3 13.0 0.00 0.00 0.00 32 1011.0
20260502212340 66 202 4.3 13.0 0.00 0.00 0.00 32 1011.1
20260502211840 67 211 4.3 9.6 0.00 0.00 0.00 30 1011.2
20260502211340 67 271 3.5 9.6 0.00 0.00 0.00 31 1011.3
20260502211104 67 213 3.5 11.3 0.00 0.00 0.00 31 1011.5
20260502210341 67 295 5.2 11.3 0.00 0.00 0.00 30 1011.4
20260502205841 67 226 4.3 12.2 0.00 0.00 0.00 31 1011.6
20260502205604 67 219 4.3 12.2 0.00 0.00 0.00 31 1011.7
20260502204840 67 207 4.3 11.3 0.00 0.00 0.00 31 1011.7
20260502204339 67 306 4.3 10.4 0.00 0.00 0.00 30 1011.8
20260502203841 67 211 4.3 13.0 0.00 0.00 0.00 29 1012.0
20260502203340 67 238 5.2 13.0 0.00 0.00 0.00 30 1012.1
20260502202839 67 221 5.2 12.2 0.00 0.00 0.00 33 1012.1
20260502202341 67 259 5.2 11.3 0.00 0.00 0.00 30 1012.3
20260502201834 67 230 4.3 11.3 0.00 0.00 0.00 31 1012.4
20260502201329 66 223 3.5 8.7 0.00 0.00 0.00 33 1012.6
20260502200831 66 214 3.5 11.3 0.00 0.00 0.00 32 1012.6
20260502200551 67 186 3.5 11.3 0.00 0.00 0.00 32 1012.7
20260502195830 66 215 2.6 8.7 0.00 0.00 0.00 33 1012.8
20260502195329 66 238 2.6 7.8 0.00 0.00 0.00 34 1013.0
20260502195312 66 173 2.6 7.8 0.00 0.00 0.00 33 1013.0
20260502194554 64 217 2.6 7.8 0.00 0.00 0.00 32 1013.1
20260502193830 64 213 3.5 11.3 0.00 0.00 0.00 30 1013.3
20260502193329 65 300 3.5 11.3 0.00 0.00 0.00 32 1013.4
20260502192830 65 200 3.5 10.4 0.00 0.00 0.00 34 1013.4
20260502192550 65 180 4.3 10.4 0.00 0.00 0.00 32 1013.4
20260502191831 65 175 4.3 10.4 0.00 0.00 0.00 33 1013.6
20260502191330 64 188 3.5 7.8 0.00 0.00 0.00 33 1013.6
20260502190826 64 232 3.5 7.8 0.00 0.00 0.00 35 1013.7
20260502190326 63 254 4.3 10.4 0.00 0.00 0.00 32 1014.0
20260502185825 62 180 4.3 10.4 0.00 0.00 0.00 34 1014.1
20260502185327 63 299 3.5 10.4 0.00 0.00 0.00 32 1014.2
20260502184827 63 0 3.5 10.4 0.00 0.00 0.00 33 1014.2
20260502184326 63 227 4.3 11.3 0.00 0.00 0.00 34 1014.4
20260502183825 63 257 5.2 15.6 0.00 0.00 0.00 33 1014.5
20260502183327 62 207 5.2 15.6 0.00 0.00 0.00 35 1014.5
20260502182826 63 259 4.3 11.3 0.00 0.00 0.00 34 1014.7
20260502182327 62 231 3.5 10.4 0.00 0.00 0.00 35 1014.7
20260502181825 62 193 3.5 10.4 0.00 0.00 0.00 35 1014.8
20260502181323 63 192 4.3 11.3 0.00 0.00 0.00 35 1014.9
20260502180824 62 259 3.5 11.3 0.00 0.00 0.00 35 1014.9
20260502180324 61 266 3.5 7.0 0.00 0.00 0.00 33 1014.9
20260502170319 60 266 3.5 7.8 0.00 0.00 0.00 36 1016.0
20260502164320 59 299 3.5 9.6 0.00 0.00 0.00 36 1016.2
20260502163821 59 217 3.5 9.6 0.00 0.00 0.00 36 1016.3
20260502163320 58 194 3.5 7.8 0.00 0.00 0.00 40 1016.3
20260502162820 57 261 2.6 7.0 0.00 0.00 0.00 36 1016.4
20260502162319 58 281 3.5 7.0 0.00 0.00 0.00 36 1016.5
20260502161820 58 312 2.6 7.0 0.00 0.00 0.00 36 1016.5
20260502161321 58 198 2.6 7.0 0.00 0.00 0.00 36 1016.6
20260502160820 57 291 3.5 7.8 0.00 0.00 0.00 35 1016.6
20260502160541 56 342 4.3 9.6 0.00 0.00 0.00 36 1016.7
20260502151821 55 338 2.6 8.7 0.00 0.00 0.00 38 1017.0
20260502151319 54 303 3.5 9.6 0.00 0.00 0.00 39 1017.1
20260502150820 54 277 3.5 9.6 0.00 0.00 0.00 38 1017.1
20260502150808 55 254 3.5 8.7 0.00 0.00 0.00 40 1017.1
20260502130256 42 211 1.7 3.5 0.00 0.00 0.00 68 1017.7
20260502123755 39 252 0.9 3.5 0.00 0.00 0.00 72 1017.7
20260502123255 39 253 0.9 3.5 0.00 0.00 0.00 73 1017.7
20260502122757 38 252 0.9 1.7 0.00 0.00 0.00 74 1017.7
20260502122511 38 252 0.9 2.6 0.00 0.00 0.00 75 1017.6
20260502121754 38 251 1.7 3.5 0.00 0.00 0.00 75 1017.6
20260502121248 37 250 0.9 3.5 0.00 0.00 0.00 76 1017.7
20260502120749 37 219 0.9 3.5 0.00 0.00 0.00 76 1017.6
20260502120247 37 219 1.7 3.5 0.00 0.00 0.00 76 1017.7
20260502115749 36 217 0.9 2.6 0.00 0.00 0.00 75 1017.7
20260502115301 36 217 0.9 3.5 0.00 0.00 0.00 75 1017.7
20260502114747 36 216 1.7 3.5 0.00 0.00 0.00 74 1017.7
20260502114247 36 212 1.7 3.5 0.00 0.00 0.00 74 1017.6
20260502113247 36 218 0.9 2.6 0.00 0.00 0.00 74 1017.6
20260502113010 36 217 0.9 2.6 0.00 0.00 0.00 73 1017.4
20260502112245 36 221 0.9 2.6 0.00 0.00 0.00 73 1017.4
20260502111746 36 220 0.9 1.7 0.00 0.00 0.00 73 1017.4
20260502111247 36 220 0.0 1.7 0.00 0.00 0.00 73 1017.4
20260502110746 36 220 0.0 0.9 0.00 0.00 0.00 73 1017.3
20260502110243 36 220 0.0 1.7 0.00 0.00 0.00 72 1017.4
20260502105742 36 220 0.0 1.7 0.00 0.00 0.00 72 1017.3
20260502105236 36 220 0.0 0.0 0.00 0.00 0.00 72 1017.3
20260502104951 37 220 0.0 0.0 0.00 0.00 0.00 72 1017.3
20260502104232 37 220 0.0 0.0 0.00 0.00 0.00 71 1017.3
20260502103730 37 220 0.0 0.0 0.00 0.00 0.00 71 1017.3
20260502103232 37 220 0.0 0.0 0.00 0.00 0.00 71 1017.3
20260502102732 37 220 0.0 0.0 0.00 0.00 0.00 70 1017.3
20260502102445 37 220 0.0 0.0 0.00 0.00 0.00 70 1017.3
20260502102332 37 220 0.0 0.0 0.00 0.00 0.00 70 1017.3
20260502101231 37 220 0.0 0.0 0.00 0.00 0.00 69 1017.3
20260502100731 37 220 0.0 0.0 0.00 0.00 0.00 69 1017.3
20260502100455 37 220 0.0 0.0 0.00 0.00 0.00 69 1017.3
20260502100225 38 220 0.0 0.0 0.00 0.00 0.00 69 1017.3
20260502091448 38 219 0.0 0.0 0.00 0.00 0.00 69 1017.1
20260502090721 38 219 0.0 0.0 0.00 0.00 0.00 69 1017.1
20260502090221 38 219 0.0 0.0 0.00 0.00 0.00 69 1017.0
20260502071207 39 253 0.0 0.0 0.00 0.00 0.00 64 1017.4
20260502070704 39 253 0.0 0.0 0.00 0.00 0.00 65 1017.4
20260502070202 39 253 0.0 0.0 0.00 0.00 0.00 65 1017.4
20260502065701 39 253 0.0 0.9 0.00 0.00 0.00 65 1017.6
20260502065158 39 253 0.0 0.9 0.00 0.00 0.00 65 1017.6
20260502064924 39 253 0.0 0.9 0.00 0.00 0.00 65 1017.6
20260502064157 40 253 0.0 0.0 0.00 0.00 0.00 64 1017.7
20260502063656 40 253 0.0 0.0 0.00 0.00 0.00 63 1017.7
20260502063154 40 253 0.0 0.0 0.00 0.00 0.00 63 1017.7
20260502062653 40 253 0.0 0.0 0.00 0.00 0.00 63 1017.7
20260502062154 40 253 0.0 0.0 0.00 0.00 0.00 63 1017.7
20260502061652 40 253 0.0 0.0 0.00 0.00 0.00 63 1017.7
20260502061150 40 253 0.0 0.0 0.00 0.00 0.00 63 1017.7
20260502060650 40 253 0.0 0.9 0.00 0.00 0.00 62 1017.7
20260502060151 40 253 0.0 0.9 0.00 0.00 0.00 62 1017.7
20260502055649 40 253 0.0 1.7 0.00 0.00 0.00 62 1017.7
20260502055149 40 253 0.0 1.7 0.00 0.00 0.00 61 1017.7
20260502054908 40 253 0.0 1.7 0.00 0.00 0.00 62 1017.7
20260502054409 40 254 0.0 2.6 0.00 0.00 0.00 61 1017.7
20260502053649 41 254 0.0 2.6 0.00 0.00 0.00 60 1017.7
20260502053149 41 254 0.0 0.9 0.00 0.00 0.00 60 1017.7
20260502052650 41 254 0.0 0.0 0.00 0.00 0.00 60 1017.7
20260502052411 41 254 0.0 1.7 0.00 0.00 0.00 59 1017.7
20260502051649 41 254 0.0 1.7 0.00 0.00 0.00 59 1017.7
20260502051149 41 259 0.0 1.7 0.00 0.00 0.00 59 1017.7
20260502050650 41 260 0.0 1.7 0.00 0.00 0.00 58 1017.7
20260502050149 42 261 0.0 0.0 0.00 0.00 0.00 58 1017.7
20260502045649 42 261 0.0 0.0 0.00 0.00 0.00 57 1017.7
20260502045150 42 261 0.0 0.0 0.00 0.00 0.00 56 1017.6
20260502044650 42 261 0.0 0.0 0.00 0.00 0.00 56 1017.6
20260502044147 42 261 0.0 0.0 0.00 0.00 0.00 56 1017.6
20260502043657 42 261 0.0 0.0 0.00 0.00 0.00 55 1017.6
20260502043142 42 261 0.0 0.0 0.00 0.00 0.00 55 1017.6
20260502042829 43 261 0.0 0.0 0.00 0.00 0.00 53 1017.6
20260502042722 43 261 0.0 0.0 0.00 0.00 0.00 55 1017.6
20260502042239 43 261 0.0 0.0 0.00 0.00 0.00 54 1017.6
20260502041358 43 261 0.0 0.0 0.00 0.00 0.00 53 1017.6
20260502040637 43 261 0.0 0.0 0.00 0.00 0.00 52 1017.6
20260502040135 43 261 0.0 0.0 0.00 0.00 0.00 52 1017.6
20260502040120 43 261 0.0 0.0 0.00 0.00 0.00 52 1017.7
20260502035611 44 261 0.0 0.0 0.00 0.00 0.00 52 1017.7
20260502034635 44 262 0.0 0.0 0.00 0.00 0.00 52 1017.7
20260502034134 44 262 0.0 0.0 0.00 0.00 0.00 50 1017.7
20260502033632 44 262 0.0 0.0 0.00 0.00 0.00 49 1017.7
20260502033352 44 262 0.0 0.0 0.00 0.00 0.00 47 1017.8
20260502032626 44 263 0.0 0.0 0.00 0.00 0.00 47 1017.8
20260502032121 44 263 0.0 0.0 0.00 0.00 0.00 47 1017.7
20260502031610 45 263 0.0 0.9 0.00 0.00 0.00 46 1017.7
20260502031333 45 262 0.0 0.9 0.00 0.00 0.00 46 1017.7
20260502030603 45 263 0.0 0.9 0.00 0.00 0.00 45 1017.7
20260502030109 45 263 0.0 1.7 0.00 0.00 0.00 45 1017.6
20260502025600 45 263 0.0 1.7 0.00 0.00 0.00 44 1017.6
20260502025328 45 263 0.0 0.9 0.00 0.00 0.00 43 1017.6
20260502024601 46 263 0.0 0.9 0.00 0.00 0.00 43 1017.7
20260502024326 46 263 0.0 0.9 0.00 0.00 0.00 42 1017.6
20260502023559 46 263 0.0 1.7 0.00 0.00 0.00 42 1017.6
20260502023100 46 265 0.0 1.7 0.00 0.00 0.00 42 1017.6
20260502022822 47 266 0.0 1.7 0.00 0.00 0.00 42 1017.6
20260502022058 47 266 0.0 1.7 0.00 0.00 0.00 41 1017.6
20260502021600 47 331 0.0 0.0 0.00 0.00 0.00 41 1017.6
20260502021058 47 331 0.0 0.0 0.00 0.00 0.00 40 1017.6
20260502020558 48 331 0.0 0.0 0.00 0.00 0.00 39 1017.4
20260502020334 48 331 0.0 0.0 0.00 0.00 0.00 39 1017.3
20260502015550 49 331 0.0 0.0 0.00 0.00 0.00 37 1017.3
20260502015537 49 331 0.0 1.7 0.00 0.00 0.00 36 1017.2
20260502014551 49 331 0.0 1.7 0.00 0.00 0.00 35 1017.1
20260502014050 49 331 0.9 2.6 0.00 0.00 0.00 35 1017.0
20260502013551 50 331 0.0 2.6 0.00 0.00 0.00 34 1016.9
20260502013050 50 342 0.0 0.0 0.00 0.00 0.00 34 1016.9
20260502012550 50 342 0.0 0.9 0.00 0.00 0.00 33 1016.9
20260502012050 51 342 0.9 3.5 0.00 0.00 0.00 32 1016.9
20260502011551 51 344 0.9 3.5 0.00 0.00 0.00 32 1016.9
20260502011050 51 340 1.7 4.3 0.00 0.00 0.00 31 1016.9
20260502011036 51 335 0.9 4.3 0.00 0.00 0.00 32 1016.9
20260502010104 51 338 0.9 3.5 0.00 0.00 0.00 32 1016.9